weather.gov     
National Weather Service

Regional Weather Roundup
NWS Homepage
This page is being discontinued on March 12, 2014.
The same data is available at this site. Please update your bookmarks.
Thank you, and we apologize for the inconvenience.
Please send an email to SR-SRH.Webmaster@noaa.gov with any concerns.


Current Version
Previous Version:    01  02  03  04  05  06  07  08  09  10  11  12  13  14  15  16  17  18  19  20  21  22  23  24  25  26  27  28  29  30  
   31  32  33  34  35  36  37  38  39  40  41  42  43  44  45  46  47  48  49  50  51  52  53  
[Printable]
707
ASUS45 KPSR 020410
RWRAZ

ARIZONA REGIONAL HOURLY WEATHER ROUNDUP
NATIONAL WEATHER SERVICE PHOENIX AZ
900 PM MST FRI AUG 01 2014

NOTE: FAIR INDICATES FEW OR NO CLOUDS BELOW 12,000 FEET WITH NO
SIGNIFICANT WEATHER AND/OR OBSTRUCTIONS TO VISIBILITY.

AZZ001>003-036-020500-
NORTHWEST ARIZONA

CITY           SKY/WX    TMP DP  RH WIND       PRES   REMARKS
BULLHEAD CITY  CLEAR    104  54  18 S12       29.77R HX 102
KINGMAN        PTCLDY    85  49  28 E13       30.04R
$$

AZZ004>008-015-016-018-020500-
NORTH CENTRAL ARIZONA

CITY           SKY/WX    TMP DP  RH WIND       PRES   REMARKS
GRAND CANYON   PTCLDY    63  50  62 S5        30.29R
WILLIAMS       MOCLDY    64  48  55 NW3       30.35R
PRESCOTT       CLOUDY    72  53  51 S6        30.16R
FLAGSTAFF      CLOUDY    56  52  86 CALM      30.31R
PAYSON         CLOUDY    72  55  56 SE3       30.21R
PAGE           CLOUDY    86  43  22 CALM      30.06R
$$

AZZ009>014-017-020500-
NORTHEAST ARIZONA

CITY           SKY/WX    TMP DP  RH WIND       PRES   REMARKS
WINSLOW        CLOUDY    77  54  44 E21G28    30.15R
SAINT JOHNS    CLOUDY    67  58  72 S7        30.20R
WINDOW ROCK    MOCLDY    70  48  45 S10       30.29R
SHOW LOW       CLOUDY    63  55  77 S9        30.29R
$$

AZZ023-020500-
GREATER PHOENIX AREA

CITY           SKY/WX    TMP DP  RH WIND       PRES   REMARKS
PHOENIX        MOCLDY    95  57  27 SE6       29.87R
BUCKEYE          N/A     88  66  48 N6        29.88R
LUKE AFB       NOT AVBL
DEER VALLEY    HVY RAIN  79  70  73 SW21G29   29.96R
SCOTTSDALE     CLOUDY    93  58  30 W6        29.92R
MESA-GATEWAY   MOCLDY    91  59  33 S6        29.93R
CHANDLER       MOCLDY    91  61  35 SE12      29.90R
$$

AZZ027-028-020500-
SOUTHWEST MARICOPA COUNTY AND PINAL COUNTY

CITY           SKY/WX    TMP DP  RH WIND       PRES   REMARKS
CASA GRANDE    CLOUDY    86  61  42 E10       29.93R
GILA BEND      MOCLDY    93  63  36 SE2       29.86R
$$

AZZ503-504-507>509-020500-
SOUTHEAST ARIZONA

CITY           SKY/WX    TMP DP  RH WIND       PRES   REMARKS
TUCSON         CLOUDY    82  60  47 NW14      30.02R
DAVIS-MONTHAN  CLOUDY    85  60  43 N10       30.00R
NOGALES        CLOUDY    81  58  45 SW7       30.10R
SIERRA VISTA   LGT RAIN  72  63  73 CALM      30.16R
DOUGLAS        CLOUDY    76  65  68 SE7       30.12R
SAFFORD        CLOUDY    78  59  51 E9        30.08R
$$

AZZ020-021-025-026-031-020500-
SOUTHWEST ARIZONA

CITY           SKY/WX    TMP DP  RH WIND       PRES   REMARKS
YUMA           CLOUDY    99  63  30 S7        29.77R HX 101
$$

CAZ031-033-041-043-047-048-061-020500-
SOUTHERN CALIFORNIA

CITY           SKY/WX    TMP DP  RH WIND       PRES   REMARKS
DOWNTOWN L.A.  CLEAR     70  63  78 SW3       29.88R
L.A. AIRPORT   MOCLDY    67  63  87 W8        29.89R
SAN DIEGO      MOCLDY    72  64  76 NW3       29.90R
BURBANK        CLEAR     78  63  59 SE7       29.88R
ONTARIO        CLEAR     79  63  57 W6        29.89R
RIVERSIDE      CLEAR     81  62  52 W3        29.89R
PALM SPRINGS   PTCLDY    99  69  37 SE5       29.78R HX 105
EL CENTRO NAS  MOCLDY   100  62  28 SE14      29.73R HX 101
IMPERIAL       MOCLDY   100  63  29 SE12      29.73R HX 102
BLYTHE           N/A    N/A N/A N/A MISG      29.76R
NEEDLES        CLEAR    102  56  21 S6        29.80R HX 101
$$

NVZ020-UTZ003-020500-
SOUTHERN NEVADA-UTAH

CITY           SKY/WX    TMP DP  RH WIND       PRES   REMARKS
LAS VEGAS      PTCLDY    99  51  19 S13       29.83R
SALT LAKE CITY PTCLDY    76  49  38 W3        30.09R
$$

NMZ009-TXZ055-020500-
NEW MEXICO-WEST TEXAS

CITY           SKY/WX    TMP DP  RH WIND       PRES   REMARKS
ALBUQUERQUE    CLOUDY    69  59  70 W10       30.26R
EL PASO        MOCLDY    73  63  70 E8        30.15R
$$


........................KEY........................
SKY/WX - SKY CONDITION/WEATHER
TMP    - TEMPERATURE IN FAHRENHEIT
DP     - DEW POINT IN FAHRENHEIT
RH     - RELATIVE HUMIDITY IN PERCENT
WIND   - DIRECTION AND SPEED IN MILES PER HOUR (MPH)
VRB    - VARIABLE WIND DIRECTION
PRES   - MEAN SEA LEVEL PRESSURE IN INCHES OF MERCURY
         F - FALLING PRESSURE   R - RISING PRESSURE
         S - STEADY PRESSURE
VSB    - VISIBILITY IN MILES
HX     - HEAT INDEX IN FAHRENHEIT
WCI    - WIND CHILL INDEX IN FAHRENHEIT
TC     - TEMPERATURE IN CELSIUS WHICH IS ALSO KNOWN AS
         TEMPERATURE IN CENTIGRADE
AFB    - AIR FORCE BASE
         LUKE AFB IS LUKE AIR FORCE BASE
         DAVIS-MONTHAN IS DAVIS-MONTHAN AIR FORCE BASE
NAS    - NAVAL AIR STATION
         EL CENTRO NAS IS EL CENTRO NAVAL AIR STATION
N/A    - NOT AVAILABLE




U.S. Dept. of Commerce
NOAA National Weather Service
1325 East West Highway
Silver Spring, MD 20910
E-mail: w-nws.webmaster@noaa.gov
Page last modified: May 16, 2007
NATIONAL WEATHER SERVICE: for Safety, for Work, for Fun - FOR LIFE